Total_Precipitation_Accumulation
1.91 1.96 1.66 0.85 0.67 0.35 0.43 0.39 0.59 0.36 0.25 0.17 1.36 0.95 1.08 0.80 0.74 0.72 0.49 0.18 0.08 0.14 0.18 0.28 0.44 0.57 0.63 0.54 0.43 0.43 0.52 0.61 0.78 0.58 1.04 0.65 0.75 0.74 0.66 0.50 0.44 0.46 0.35 0.45 0.45 0.54 0.68 0.45 0.34 0.40 0.50 0.35 0.45 0.45 0.26 0.43 0.36 0.36 0.45 0.67 0.66 0.42 0.39 0.42 0.47 0.42 0.37 0.10 0.17 0.12 0.10 0.19 0.14 0.07 0.04 0.01 0.01 0.05 0.01 0.00 0.00 0.04 0.01 0.00 0.00
1.83 1.53 1.16 1.09 0.83 0.99 1.06 1.61 1.02 0.33 0.26 0.63 1.92 1.35 1.23 0.60 0.98 1.18 0.89 0.43 0.51 0.61 0.47 0.33 0.54 0.64 0.59 0.87 0.50 0.78 0.73 0.60 0.53 0.59 0.53 0.48 0.45 0.74 0.63 0.53 0.46 0.25 0.29 0.20 0.21 0.44 0.49 0.42 0.35 0.21 0.25 0.37 0.42 0.44 0.34 0.43 0.45 0.30 0.43 0.67 0.98 0.84 0.86 0.60 0.56 0.61 0.25 0.14 0.23 0.22 0.26 0.22 0.18 0.10 0.06 0.04 0.01 0.00 0.00 0.00 0.01 0.01 0.01 0.07 0.02
1.97 1.85 1.21 1.10 1.61 2.15 1.62 1.68 0.61 0.31 0.37 1.22 1.93 1.46 0.66 0.30 0.64 0.58 0.36 0.40 0.41 0.62 0.51 0.57 0.51 0.66 0.50 0.98 0.72 0.90 0.77 0.60 0.38 0.36 0.32 0.45 0.54 0.54 0.59 0.79 0.64 0.42 0.23 0.15 0.19 0.21 0.50 0.37 0.39 0.50 0.50 0.56 0.53 0.45 0.37 0.56 0.44 0.59 0.65 0.25 0.43 0.62 0.46 0.50 0.71 0.69 0.53 0.30 0.21 0.20 0.22 0.18 0.19 0.20 0.18 0.07 0.06 0.12 0.01 0.00 0.01 0.01 0.00 0.00 0.00
1.97 1.68 1.92 2.05 2.78 2.03 1.90 1.56 0.90 0.98 1.18 1.42 1.16 1.29 0.58 1.03 0.53 0.56 0.26 0.40 0.35 0.59 0.97 0.40 0.47 0.53 0.94 1.29 1.07 0.57 1.08 0.40 0.54 0.80 0.70 0.72 0.53 0.46 0.49 0.76 0.50 0.44 0.25 0.21 0.14 0.17 0.16 0.19 0.25 0.32 0.49 0.66 0.70 0.75 0.62 0.80 0.50 0.82 0.76 0.40 0.62 0.78 0.52 0.57 0.44 0.58 0.26 0.23 0.18 0.24 0.21 0.21 0.14 0.12 0.12 0.06 0.04 0.03 0.03 0.03 0.02 0.01 0.01 0.01 0.00
1.74 1.66 1.63 2.78 2.17 2.20 1.44 1.45 1.80 1.14 1.22 1.46 1.43 0.86 0.78 1.09 0.96 0.66 0.75 0.53 0.41 0.58 0.87 0.85 0.91 0.64 0.62 0.54 0.58 0.93 1.03 0.50 0.44 0.74 0.74 0.78 0.37 0.74 0.43 0.65 0.85 0.34 0.39 0.42 0.46 0.20 0.15 0.25 0.38 0.34 0.25 0.65 0.62 0.78 0.80 0.51 0.59 0.52 0.67 0.70 0.32 1.01 0.30 0.35 0.43 0.60 0.47 0.32 0.18 0.16 0.24 0.33 0.19 0.13 0.12 0.08 0.06 0.03 0.10 0.38 0.05 0.03 0.02 0.04 0.02
1.51 2.05 2.32 2.92 2.75 2.38 2.07 1.95 2.27 1.58 1.01 1.06 0.88 0.47 1.09 0.95 0.63 0.74 0.73 0.70 0.99 0.81 0.59 0.67 1.02 0.95 0.71 0.75 0.76 0.87 0.71 0.85 0.57 0.78 0.81 0.76 0.62 0.52 0.80 0.64 0.69 0.75 0.89 0.60 0.65 0.64 0.41 0.67 0.26 0.47 0.72 0.73 0.96 0.61 0.51 0.69 0.61 0.52 0.33 0.59 0.43 0.63 0.65 0.51 0.30 0.39 0.39 0.52 0.29 0.46 0.28 0.20 0.12 0.09 0.12 0.11 0.05 0.03 0.04 0.04 0.08 0.05 0.09 0.02 0.01
1.35 0.97 1.81 2.39 1.86 1.51 1.36 1.56 1.34 1.00 0.82 0.91 0.52 0.84 0.61 0.56 0.37 0.88 1.36 1.06 0.84 1.02 1.04 0.53 0.77 0.95 1.90 1.45 0.87 0.71 1.05 0.84 0.96 1.09 0.90 0.63 0.40 0.55 0.78 0.48 0.54 0.71 0.67 0.83 0.75 0.78 0.92 0.56 0.51 0.60 0.93 0.57 0.33 0.56 0.51 0.67 0.56 0.81 0.32 0.77 0.34 0.38 0.70 0.53 0.41 0.48 0.42 0.34 0.26 0.36 0.23 0.22 0.31 0.19 0.07 0.09 0.04 0.05 0.16 0.02 0.05 0.07 0.04 0.07 0.04
2.78 2.12 2.14 2.13 0.98 1.14 1.39 1.84 1.85 1.46 1.05 1.45 1.16 0.79 0.93 1.07 1.17 1.65 1.68 1.08 1.40 1.44 0.95 0.89 1.42 1.78 1.52 1.32 0.92 0.72 0.92 0.76 0.87 1.23 1.05 1.10 1.06 0.72 0.82 0.98 1.40 0.67 1.16 1.13 1.00 0.81 0.78 0.58 0.94 1.06 0.83 0.62 0.87 0.93 0.55 0.67 0.53 0.50 0.46 0.91 0.69 0.52 0.42 0.45 0.37 0.36 0.34 0.34 0.33 0.28 0.17 0.18 0.20 0.14 0.13 0.37 0.15 0.11 0.06 0.08 0.04 0.03 0.03 0.01 0.07
1.56 1.69 1.34 1.12 1.45 1.58 2.00 1.73 1.92 1.15 1.42 1.37 0.89 1.34 1.48 1.11 0.99 1.10 0.97 0.78 0.79 1.10 1.31 1.92 1.69 0.79 0.54 0.80 0.89 0.96 0.78 1.15 1.41 1.02 1.29 0.89 0.76 1.69 1.05 0.79 0.77 0.92 0.95 0.66 0.79 0.74 0.90 0.77 0.57 0.55 0.67 0.45 0.36 0.40 0.25 0.37 0.46 1.07 0.51 0.78 1.15 1.24 0.44 0.61 0.77 0.50 0.34 0.47 0.70 0.49 0.43 0.16 0.20 0.20 0.21 0.10 0.04 0.08 0.05 0.06 0.02 0.02 0.10 0.01 0.03
1.47 1.18 1.00 0.90 1.14 1.52 1.33 1.73 1.82 1.91 1.85 1.33 1.07 1.85 1.39 1.65 1.53 0.81 1.01 1.21 0.92 0.82 1.14 1.95 1.22 1.23 0.59 1.06 1.11 0.95 0.93 1.34 0.71 0.38 0.37 0.58 0.98 1.12 0.97 0.95 0.72 0.52 0.85 0.77 0.76 0.80 0.85 0.59 0.28 0.12 0.17 0.37 0.51 0.32 0.27 0.26 0.33 0.60 0.73 0.98 0.54 0.30 0.40 0.80 0.71 0.65 0.31 0.75 0.35 0.41 0.47 0.36 0.27 0.19 0.07 0.05 0.08 0.03 0.03 0.01 0.02 0.00 0.02 0.01 0.02
1.05 0.95 1.49 1.49 1.65 1.42 1.75 1.96 1.57 1.92 1.95 3.00 1.68 1.76 1.30 1.04 1.27 1.00 1.01 1.00 1.55 1.40 1.21 1.35 1.55 1.08 0.83 1.00 1.45 1.21 1.11 0.80 0.91 0.82 0.52 0.59 0.50 1.08 0.70 0.72 0.70 0.63 0.55 0.55 0.61 0.59 0.65 0.55 0.35 0.62 0.76 0.69 0.77 0.32 0.40 0.29 0.49 0.81 0.37 0.64 0.58 0.58 0.60 0.56 0.44 0.52 0.53 0.35 0.86 0.43 0.58 0.70 0.49 0.34 0.11 0.05 0.06 0.02 0.08 0.08 0.07 0.03 0.05 0.02 0.06
1.42 1.36 1.39 1.53 1.84 1.62 1.40 2.19 2.46 1.58 1.73 2.09 1.85 2.00 1.16 1.05 1.02 1.19 0.91 0.75 0.79 0.75 0.70 0.89 0.70 0.99 1.18 1.02 1.06 1.23 0.87 0.52 0.47 0.39 0.84 0.49 0.29 0.67 0.53 0.72 0.67 0.69 0.56 0.45 0.54 0.52 0.52 0.68 0.94 0.72 0.95 0.66 0.49 0.46 0.62 0.46 0.35 0.57 0.59 0.48 0.49 0.63 0.79 0.82 0.52 0.45 0.37 0.57 0.47 0.59 0.51 0.77 0.77 0.29 0.24 0.13 0.14 0.07 0.09 0.07 0.07 0.06 0.17 0.19 0.18
2.01 1.88 1.70 1.38 1.67 1.56 1.82 2.55 2.52 2.25 1.61 1.63 1.81 2.11 1.80 0.83 0.73 0.63 0.80 0.92 0.67 0.68 1.08 0.66 0.80 0.57 0.79 1.04 1.09 0.67 0.36 0.26 0.33 0.38 0.29 0.12 0.09 0.12 0.36 0.60 0.53 1.01 0.65 0.57 0.42 0.44 0.54 0.53 0.94 0.96 0.53 0.47 0.68 1.17 0.77 0.32 0.33 0.38 0.34 0.48 0.23 0.57 0.51 0.52 0.99 1.06 0.75 0.42 0.30 0.33 0.57 0.54 1.24 0.94 0.37 0.48 0.66 0.71 0.37 0.13 0.07 0.14 0.13 0.12 0.07
1.00 1.24 0.94 1.17 1.16 1.24 1.47 1.80 1.77 1.86 1.88 1.80 1.62 1.11 0.96 1.05 1.02 0.83 0.85 0.78 0.69 0.57 0.67 0.70 1.13 0.82 0.80 1.06 0.63 0.45 0.75 0.70 0.48 0.35 0.13 0.09 0.09 0.08 0.11 0.21 0.31 0.29 0.38 0.59 0.68 0.77 1.00 0.95 0.68 0.83 0.76 0.89 0.95 0.65 0.52 0.68 0.39 0.36 0.42 0.75 1.03 1.00 0.35 1.04 1.07 1.11 1.53 1.55 1.46 0.79 0.52 0.36 0.51 0.44 0.98 0.80 0.77 0.56 0.48 0.53 0.66 0.57 0.40 0.33 0.75
1.10 1.11 0.95 0.71 0.85 1.17 1.19 1.17 1.14 1.69 2.03 2.15 2.35 1.09 0.74 0.74 0.71 0.75 0.83 1.20 0.87 0.73 0.45 0.44 0.43 0.40 0.39 0.44 0.55 0.44 0.58 1.03 0.58 0.38 0.25 0.24 0.18 0.12 0.14 0.28 0.17 0.48 0.67 0.58 0.80 0.93 0.85 0.84 0.74 0.68 0.66 0.53 0.52 0.65 0.66 0.45 0.48 0.60 0.55 0.65 0.57 0.29 0.63 0.46 0.59 1.20 0.88 0.84 2.19 1.09 1.60 1.32 1.01 1.10 1.24 0.80 0.56 0.51 0.50 1.17 1.21 1.08 0.84 0.30 0.58
0.78 0.88 1.18 0.93 0.63 0.72 1.19 1.38 1.20 1.24 1.31 1.47 1.51 1.47 1.15 1.04 0.81 0.62 0.94 0.88 0.94 0.89 0.72 0.56 0.56 0.56 0.49 0.57 0.43 0.57 0.88 0.83 0.56 0.43 0.39 0.28 0.30 0.41 0.56 0.29 0.28 0.27 0.40 0.55 0.75 0.83 0.54 0.91 0.84 0.75 0.66 0.80 0.60 0.62 0.66 0.73 0.70 0.45 0.51 0.44 0.61 0.36 0.50 0.46 0.65 0.59 0.66 0.86 1.02 0.88 0.80 0.90 0.92 1.23 0.51 0.88 0.82 0.43 0.53 0.47 0.52 0.50 0.55 0.70 0.58
0.10 0.50 0.95 1.21 0.96 0.79 0.82 1.05 1.61 1.19 1.13 1.24 1.41 1.65 1.51 1.05 0.77 0.67 0.49 0.76 0.89 1.11 1.45 0.66 0.79 0.58 0.55 0.44 0.58 0.50 1.04 1.31 0.63 0.28 0.25 0.26 0.27 0.28 0.26 0.48 0.69 0.55 0.56 0.44 0.45 0.62 0.74 0.68 0.84 1.00 0.82 1.18 0.81 0.47 0.38 0.66 0.76 0.62 0.48 0.40 0.68 0.49 0.56 0.72 0.44 0.43 0.58 0.46 0.27 0.34 0.46 0.51 0.43 0.56 0.71 0.33 0.76 0.90 0.94 0.83 0.33 0.14 0.49 0.69 0.28
0.13 0.12 0.13 0.49 1.55 1.25 0.96 0.74 0.97 0.84 0.94 0.97 1.28 1.55 1.83 2.10 1.82 2.27 1.07 1.75 1.38 1.25 0.98 0.81 1.07 1.09 0.57 0.54 0.69 1.69 1.95 1.77 1.15 0.60 0.42 0.32 0.37 0.38 1.11 0.70 0.72 1.01 0.75 0.62 0.75 0.83 0.63 0.47 0.46 0.82 1.16 0.84 0.54 0.38 0.37 0.49 0.79 0.67 0.74 0.62 0.21 0.23 0.48 0.36 0.36 0.11 0.26 0.32 0.70 0.67 0.32 0.39 0.79 0.46 0.38 0.54 0.38 0.51 0.33 0.61 0.32 0.46 0.67 0.15 0.17
0.19 0.19 0.21 0.36 0.55 0.86 1.06 1.20 1.03 1.36 1.27 1.16 1.08 1.38 1.35 1.41 1.21 1.17 1.98 1.01 0.88 0.68 0.46 0.71 1.10 0.89 0.47 0.59 0.43 1.07 1.11 1.14 0.64 0.40 0.29 0.28 0.34 0.35 0.27 0.66 0.78 0.68 0.51 0.51 0.47 0.71 0.83 0.54 0.57 0.77 0.89 0.93 0.52 0.43 0.42 0.73 0.80 0.75 0.72 0.53 0.75 0.47 0.88 0.44 0.73 0.64 0.86 1.00 1.04 0.90 1.25 1.13 1.19 1.32 1.22 0.41 0.52 0.49 0.62 0.70 1.07 0.44 0.43 0.48 0.61
0.14 0.24 0.20 0.37 0.15 0.68 0.41 0.61 0.75 0.70 0.78 0.72 1.09 1.63 1.80 1.41 1.35 1.44 1.46 1.56 1.30 0.89 0.74 0.65 0.71 0.86 1.15 0.79 0.45 0.59 0.60 0.58 0.39 0.33 0.22 0.55 0.34 0.61 0.43 1.47 0.98 1.10 0.63 0.59 1.01 0.86 1.37 1.50 1.53 0.79 0.73 0.82 0.78 0.56 0.40 0.47 0.61 0.59 0.64 0.79 0.46 0.68 0.39 0.33 0.34 0.31 0.38 0.29 0.63 0.84 0.80 0.51 1.05 1.11 0.80 0.64 0.90 0.63 0.70 0.85 0.65 0.95 0.72 0.55 0.72
0.33 0.32 0.10 0.10 0.18 0.32 0.60 0.57 0.45 0.34 0.49 0.55 0.52 0.66 1.14 1.59 1.54 1.52 1.63 1.60 1.36 1.11 0.97 0.94 0.92 0.53 0.49 0.87 1.68 1.57 0.75 0.86 0.73 0.35 0.28 0.39 0.45 0.34 1.05 1.39 1.81 1.11 1.14 1.26 1.05 1.52 2.16 1.40 2.11 1.64 1.51 0.85 0.77 0.73 0.73 0.99 0.58 0.95 1.35 0.77 0.53 0.52 0.32 0.63 0.44 0.14 0.47 0.49 0.32 0.37 0.61 1.00 1.03 0.71 0.36 0.63 0.47 0.52 0.47 0.55 0.67 0.43 0.49 0.73 0.61
0.24 0.15 0.22 0.14 0.23 0.19 0.13 0.41 0.60 0.48 0.45 0.53 0.46 0.38 0.53 0.65 0.80 0.97 1.14 1.04 0.98 1.10 1.06 0.99 0.95 0.86 0.48 0.48 0.51 0.46 0.38 0.54 0.65 0.51 0.26 0.18 0.24 0.18 0.54 0.40 0.75 0.84 1.65 1.65 1.42 1.12 0.95 1.86 0.90 0.94 0.91 0.86 1.07 1.08 1.39 0.96 0.72 0.75 1.16 0.52 0.45 0.32 0.41 0.52 0.46 0.59 0.34 0.71 0.54 0.37 0.30 0.36 0.81 0.61 0.58 0.37 0.49 0.50 0.53 0.60 0.54 0.50 0.42 0.47 0.41
0.28 0.20 0.43 0.38 0.23 0.16 0.18 0.15 0.18 0.34 0.43 0.41 0.60 0.67 0.50 0.42 0.45 0.72 0.76 0.77 0.84 0.75 0.71 0.69 0.72 0.84 0.56 0.39 0.39 0.41 0.43 0.68 0.48 0.58 0.51 0.28 0.30 0.22 0.17 0.31 0.40 1.49 1.11 0.94 1.17 1.00 1.16 0.80 0.88 0.83 0.90 0.91 1.23 1.06 0.96 0.93 0.85 0.87 0.54 0.72 0.63 0.77 0.58 0.55 0.53 0.45 0.61 0.48 0.49 0.58 0.54 0.69 0.56 0.41 0.60 0.47 0.40 0.67 0.50 0.47 0.55 0.62 0.50 0.42 0.42
0.39 0.22 0.15 0.26 0.23 0.13 0.13 0.09 0.11 0.15 0.26 0.26 0.31 0.65 0.51 0.59 0.56 0.42 0.48 0.58 0.66 0.57 0.67 0.60 0.62 0.64 0.83 0.65 0.46 0.46 0.43 0.47 0.66 0.48 0.50 0.53 0.44 0.37 0.41 0.37 0.32 0.62 0.45 1.29 1.06 0.87 0.82 1.01 0.72 0.68 0.66 0.94 0.72 0.92 0.84 1.03 0.96 0.79 0.68 0.75 0.71 0.69 0.64 0.64 0.54 0.62 0.52 0.69 0.71 0.68 0.53 0.37 0.52 0.38 0.22 0.34 0.35 0.79 0.49 0.51 0.42 0.58 0.50 0.43 0.36
0.48 0.39 0.32 0.17 0.10 0.09 0.11 0.10 0.07 0.12 0.15 0.32 0.31 0.36 0.50 0.32 0.40 0.50 0.41 0.51 0.61 0.72 0.76 0.71 0.99 0.84 0.79 0.55 0.48 0.44 0.37 0.40 0.45 0.48 0.51 0.57 0.59 0.58 0.56 0.52 0.40 0.39 0.52 0.54 0.58 0.69 0.67 0.68 0.51 0.66 0.59 0.60 0.41 0.40 0.55 0.55 0.54 0.64 0.71 0.58 0.64 0.72 0.65 0.71 0.73 0.37 0.51 0.30 0.62 0.45 0.56 0.40 0.64 0.39 0.30 0.42 0.57 0.45 0.34 0.62 0.43 0.45 0.52 0.47 0.42
0.30 0.13 0.08 0.08 0.07 0.06 0.08 0.06 0.10 0.09 0.15 0.29 0.45 0.59 0.61 0.51 0.60 0.79 0.41 0.39 0.51 0.67 0.71 0.64 0.69 0.72 0.68 0.70 0.74 0.59 0.39 0.38 0.36 0.38 0.41 0.48 0.54 0.53 0.55 0.55 0.53 0.50 0.51 0.54 0.44 0.45 0.42 0.51 0.59 0.71 0.64 0.65 0.48 0.63 0.67 0.58 0.45 0.48 0.59 0.66 0.77 0.72 0.58 0.59 0.64 0.65 0.70 0.50 0.59 0.52 0.71 0.43 0.31 0.39 0.50 0.47 0.36 0.51 0.38 0.47 0.34 0.43 0.36 0.47 0.40
0.45 0.34 0.21 0.21 0.19 0.09 0.08 0.11 0.35 0.44 0.39 0.44 0.35 0.34 0.45 0.53 0.77 0.74 0.66 0.80 0.84 0.71 0.70 0.98 0.83 0.73 0.85 0.74 0.90 0.89 0.88 0.69 0.57 0.39 0.37 0.39 0.44 0.56 0.53 0.42 0.38 0.44 0.60 0.60 0.50 0.56 0.60 0.59 0.50 0.56 0.41 0.57 0.67 0.52 0.53 0.59 0.64 0.66 0.72 0.77 0.55 0.42 0.49 0.49 0.44 0.59 0.68 0.44 0.44 0.65 0.53 0.71 0.46 0.73 0.95 0.72 0.48 0.39 0.31 0.61 0.45 0.32 0.39 0.44 0.48
0.46 0.40 0.32 0.27 0.22 0.22 0.30 0.17 0.13 0.10 0.27 0.58 0.56 0.63 0.50 0.34 0.41 0.79 0.83 0.94 0.88 1.10 1.00 0.97 0.85 1.01 1.10 1.84 1.27 0.95 0.87 0.67 1.60 1.71 1.08 0.94 0.75 0.52 0.47 0.44 0.41 0.46 0.54 0.55 0.59 0.54 0.75 0.65 0.58 0.70 0.82 1.12 0.99 0.85 0.83 0.76 0.58 0.60 0.74 0.66 0.57 0.42 0.45 0.49 0.42 0.69 0.55 0.57 0.64 0.54 0.59 0.49 0.59 0.50 0.44 0.55 0.41 0.48 0.36 0.34 0.32 0.45 0.39 0.41 0.44
0.28 0.30 0.32 0.28 0.20 0.14 0.12 0.16 0.14 0.20 0.33 0.43 0.37 0.42 0.71 0.64 0.54 0.67 0.62 0.68 0.72 0.87 0.87 0.91 0.98 1.02 0.87 0.93 0.83 1.00 1.64 1.12 0.98 0.90 0.65 0.84 1.21 1.48 0.93 0.59 0.56 0.53 0.48 0.51 0.69 0.97 0.96 0.82 0.84 1.07 1.41 1.16 0.99 0.96 0.86 0.87 0.84 0.69 0.71 0.59 0.54 0.51 0.60 0.65 0.66 0.57 0.59 0.47 0.43 0.43 0.58 0.46 0.53 0.51 0.37 0.50 0.69 0.62 0.48 0.22 0.29 0.28 0.40 0.48 0.42
0.25 0.22 0.20 0.21 0.21 0.21 0.22 0.16 0.09 0.18 0.15 0.19 0.27 0.32 0.28 0.27 0.41 0.58 0.89 0.72 0.45 0.33 0.40 0.64 0.65 0.61 0.65 0.74 0.67 0.90 1.22 1.36 0.87 0.68 0.62 0.62 0.47 0.54 0.82 0.80 0.96 0.94 0.86 0.80 0.76 0.74 0.92 1.07 0.94 1.29 1.16 1.22 1.10 1.13 1.16 0.78 0.83 0.78 0.71 0.57 0.57 0.53 0.51 0.46 0.48 0.41 0.41 0.38 0.53 0.51 0.68 0.50 0.48 0.43 0.36 0.32 0.36 0.39 0.48 0.41 0.55 0.48 0.40 0.59 0.50
0.18 0.20 0.20 0.20 0.17 0.17 0.16 0.17 0.17 0.16 0.13 0.20 0.19 0.23 0.29 0.37 0.17 0.18 0.25 0.38 0.43 0.40 0.42 0.44 0.44 0.37 0.32 0.37 0.40 0.48 0.58 0.53 0.51 0.49 0.41 0.48 0.60 0.69 0.84 1.04 0.89 0.92 0.90 1.07 1.04 0.97 0.74 0.71 0.76 0.78 0.85 0.94 0.87 0.94 0.87 0.85 0.89 0.82 0.77 0.66 0.58 0.48 0.47 0.42 0.40 0.31 0.29 0.39 0.38 0.32 0.39 0.37 0.43 0.43 0.45 0.31 0.33 0.36 0.41 0.41 0.38 0.46 0.49 0.39 0.52
0.20 0.18 0.16 0.14 0.15 0.13 0.10 0.05 0.03 0.04 0.07 0.13 0.19 0.24 0.27 0.31 0.31 0.20 0.19 0.23 0.26 0.27 0.29 0.39 0.47 0.42 0.31 0.27 0.31 0.42 0.61 0.54 0.45 0.48 0.56 0.53 0.67 0.57 0.67 0.71 0.76 0.77 0.80 0.87 0.82 0.72 0.70 0.74 0.80 0.64 0.70 0.77 0.73 0.78 0.83 0.77 0.81 0.68 0.63 0.63 0.61 0.64 0.50 0.45 0.41 0.43 0.52 0.42 0.38 0.34 0.36 0.40 0.36 0.47 0.42 0.38 0.36 0.42 0.58 0.44 0.56 0.49 0.48 0.46 0.35
0.11 0.12 0.14 0.13 0.11 0.09 0.08 0.10 0.04 0.03 0.03 0.04 0.06 0.09 0.14 0.16 0.21 0.20 0.21 0.15 0.19 0.19 0.21 0.27 0.32 0.38 0.34 0.30 0.30 0.37 0.44 0.53 0.45 0.46 0.41 0.41 0.62 0.65 0.76 0.91 0.87 0.90 0.94 0.90 0.76 0.85 0.69 0.67 0.69 0.62 0.64 0.77 0.92 0.79 0.80 0.77 0.83 0.84 0.76 0.71 0.62 0.48 0.47 0.54 0.52 0.59 0.57 0.42 0.39 0.43 0.39 0.43 0.51 0.46 0.44 0.45 0.39 0.39 0.34 0.39 0.37 0.50 0.43 0.44 0.49
0.08 0.09 0.11 0.11 0.10 0.08 0.07 0.06 0.04 0.03 0.02 0.03 0.04 0.07 0.11 0.13 0.18 0.17 0.19 0.15 0.16 0.28 0.20 0.23 0.25 0.35 0.38 0.36 0.37 0.40 0.46 0.47 0.55 0.51 0.42 0.45 0.55 0.56 0.64 0.74 0.68 0.83 0.95 1.29 0.84 0.90 0.96 0.80 0.75 0.78 0.82 0.83 1.00 0.91 0.82 0.85 0.85 0.83 0.92 0.91 0.79 0.68 0.63 0.55 0.63 0.79 0.97 0.78 0.71 0.70 0.60 0.61 0.50 0.62 0.64 0.75 0.70 0.71 0.61 0.60 0.61 0.56 0.68 0.52 0.51
0.07 0.08 0.10 0.09 0.08 0.06 0.05 0.04 0.05 0.04 0.04 0.04 0.05 0.06 0.09 0.12 0.14 0.18 0.21 0.21 0.21 0.22 0.28 0.37 0.35 0.32 0.68 0.58 0.45 0.41 0.47 0.57 0.55 0.59 0.65 0.66 0.76 0.96 0.85 1.28 0.98 0.89 0.81 0.83 0.79 0.81 0.78 0.98 1.14 0.88 0.81 0.86 0.86 0.84 0.85 0.78 0.76 0.75 0.81 0.91 0.91 0.79 0.73 0.64 0.55 0.51 0.59 0.65 0.65 0.60 0.60 0.73 0.83 0.74 0.72 0.74 0.64 0.60 0.66 0.58 0.62 0.55 0.56 0.68 0.46
0.07 0.06 0.06 0.06 0.05 0.04 0.03 0.03 0.04 0.05 0.05 0.04 0.04 0.04 0.06 0.08 0.10 0.15 0.18 0.22 0.24 0.27 0.30 0.34 0.35 0.32 0.38 0.39 0.43 0.45 0.53 0.70 0.92 1.07 0.84 0.72 0.73 0.73 1.29 1.19 1.07 1.24 0.97 0.95 0.99 0.92 0.86 0.98 0.87 0.77 0.73 0.73 0.74 0.72 0.70 0.71 0.60 0.55 0.71 0.75 0.77 0.71 0.63 0.59 0.77 0.61 0.83 0.69 0.73 0.70 0.67 0.75 0.76 0.76 0.79 0.71 0.80 0.95 1.03 0.99 0.76 0.65 0.50 0.48 0.56
0.27 0.44 0.73 0.65 0.29 0.42 0.16 0.07 0.05 0.04 0.03 0.03 0.03 0.03 0.04 0.06 0.06 0.07 0.11 0.15 0.20 0.24 0.31 0.44 0.25 0.51 0.46 0.47 0.51 0.51 0.49 0.52 0.54 0.50 0.64 0.58 0.65 1.06 0.92 0.93 0.87 0.96 1.34 1.24 1.19 1.11 1.10 1.07 1.27 1.07 0.99 0.85 0.99 0.82 0.86 0.79 0.91 0.67 0.59 0.65 0.74 0.79 0.86 0.67 0.59 0.56 0.52 0.54 0.52 0.66 0.61 0.47 0.55 0.55 0.60 0.62 0.65 0.60 0.62 0.68 0.61 0.75 0.55 0.46 0.50
0.14 0.08 0.16 0.07 0.08 0.06 0.07 0.08 0.09 0.05 0.21 0.03 0.03 0.05 0.06 0.06 0.04 0.04 0.07 0.14 0.15 0.19 0.37 0.34 0.22 0.31 0.46 0.60 0.50 0.62 0.66 0.54 0.55 0.43 0.39 0.42 0.63 0.58 0.60 0.57 0.81 0.71 0.86 0.75 1.00 1.42 1.42 1.83 1.26 1.04 0.99 1.14 0.91 1.09 0.82 0.79 0.70 0.69 0.76 0.70 0.69 0.78 0.82 0.89 0.99 0.74 0.61 0.59 0.61 0.60 0.59 0.69 0.49 0.57 0.57 0.54 0.52 0.79 0.62 0.60 0.69 0.62 0.55 0.48 0.48
0.12 0.09 0.06 0.05 0.05 0.08 0.11 0.12 0.09 0.05 0.06 0.06 0.22 0.11 0.07 0.07 0.04 0.05 0.06 0.10 0.12 0.18 0.21 0.37 0.38 0.46 0.57 0.50 0.50 0.46 0.44 0.60 0.62 0.55 0.58 0.63 0.52 0.62 1.11 1.06 1.18 1.02 0.93 0.78 0.72 0.78 0.80 0.78 0.81 0.82 0.85 0.73 0.77 0.69 0.67 0.65 0.84 0.80 0.75 0.76 0.69 0.64 0.81 0.86 0.88 0.76 0.66 0.63 0.60 0.60 0.56 0.57 0.54 0.47 0.58 0.59 0.58 0.49 0.53 0.59 0.61 0.56 0.55 0.54 0.52
0.13 0.07 0.06 0.05 0.06 0.07 0.07 0.06 0.07 0.09 0.07 0.10 0.09 0.07 0.07 0.07 0.13 0.25 0.06 0.03 0.05 0.08 0.14 0.28 0.42 0.46 0.64 0.58 0.64 0.53 0.52 0.71 0.71 0.80 1.11 0.84 1.04 0.70 0.50 0.58 0.63 0.64 0.69 0.74 0.71 0.72 0.64 1.00 1.06 0.93 0.85 0.64 0.56 0.51 0.51 0.49 0.61 0.78 0.71 0.81 0.80 0.71 0.80 0.96 0.78 0.86 0.84 0.74 0.71 0.75 0.53 0.41 0.44 0.52 0.52 0.46 0.54 0.54 0.43 0.57 0.45 0.59 0.50 0.42 0.46
0.22 0.10 0.07 0.06 0.06 0.07 0.06 0.07 0.10 0.18 0.18 0.16 0.15 0.20 0.16 0.09 0.13 0.08 0.06 0.08 0.07 0.08 0.07 0.14 0.21 0.32 0.38 0.46 0.49 0.45 0.45 0.50 0.51 0.51 0.51 0.49 0.58 0.53 0.73 0.50 0.53 0.59 0.62 0.72 0.79 0.72 0.70 0.70 0.72 0.79 0.79 0.75 0.61 0.53 0.50 0.55 0.57 0.44 0.49 0.63 0.66 0.72 0.75 0.84 0.90 0.93 0.89 0.73 0.59 0.55 0.50 0.67 0.51 0.52 0.60 0.52 0.49 0.50 0.46 0.41 0.46 0.51 0.42 0.40 0.37
0.15 0.10 0.08 0.12 0.10 0.07 0.10 0.10 0.13 0.13 0.21 0.19 0.19 0.12 0.13 0.12 0.08 0.08 0.06 0.06 0.06 0.05 0.09 0.27 0.27 0.36 0.40 0.43 0.39 0.38 0.42 0.47 0.49 0.50 0.46 0.40 0.45 0.39 0.45 0.62 0.76 0.72 0.79 0.95 0.86 0.69 0.74 0.70 0.72 0.73 0.80 0.84 0.74 0.63 0.57 0.66 0.67 0.57 0.67 0.72 0.75 0.66 0.69 0.68 0.78 0.82 0.70 0.63 0.62 0.58 0.61 0.58 0.49 0.44 0.36 0.40 0.51 0.44 0.54 0.47 0.41 0.42 0.41 0.38 0.40
0.13 0.11 0.11 0.14 0.17 0.25 0.23 0.28 0.24 0.16 0.13 0.20 0.24 0.26 0.19 0.34 0.29 0.16 0.14 0.15 0.14 0.17 0.12 0.09 0.11 0.13 0.16 0.21 0.28 0.32 0.35 0.38 0.40 0.46 0.50 0.59 0.47 0.40 0.36 0.39 0.46 0.64 0.81 0.90 0.78 0.80 0.74 0.73 0.70 0.86 0.87 1.10 1.00 0.90 0.76 0.83 0.79 0.77 0.70 0.71 0.67 0.76 0.73 0.66 0.65 0.63 0.63 0.59 0.52 0.55 0.52 0.42 0.41 0.38 0.35 0.36 0.39 0.44 0.37 0.40 0.46 0.44 0.41 0.41 0.38
0.31 0.29 0.30 0.36 0.47 0.41 0.34 0.26 0.18 0.18 0.19 0.21 0.22 0.18 0.18 0.18 0.17 0.14 0.12 0.13 0.09 0.05 0.05 0.06 0.08 0.06 0.05 0.07 0.12 0.19 0.26 0.32 0.31 0.40 0.35 0.40 0.51 0.45 0.45 0.47 0.48 0.52 0.61 0.73 0.75 0.72 0.70 0.71 0.71 0.70 0.73 0.80 0.82 0.82 0.85 0.85 0.88 0.93 0.91 0.87 0.87 0.92 0.87 0.76 0.69 0.59 0.50 0.41 0.39 0.47 0.46 0.40 0.37 0.37 0.34 0.33 0.37 0.40 0.36 0.35 0.39 0.41 0.41 0.37 0.37
0.43 0.39 0.41 0.34 0.26 0.23 0.23 0.20 0.17 0.18 0.22 0.27 0.24 0.21 0.24 0.24 0.19 0.15 0.17 0.17 0.14 0.10 0.10 0.09 0.08 0.05 0.04 0.02 0.05 0.10 0.13 0.18 0.23 0.24 0.27 0.31 0.36 0.41 0.44 0.48 0.52 0.57 0.62 0.64 0.64 0.61 0.62 0.70 0.72 0.72 0.76 0.77 0.79 0.82 0.92 0.90 0.88 0.94 1.00 0.99 0.99 0.92 0.81 0.75 0.68 0.56 0.48 0.41 0.36 0.47 0.51 0.52 0.52 0.46 0.39 0.32 0.33 0.35 0.37 0.39 0.40 0.38 0.36 0.35 0.36
0.45 0.36 0.27 0.24 0.20 0.21 0.23 0.23 0.23 0.23 0.33 0.31 0.24 0.23 0.27 0.38 0.36 0.25 0.18 0.19 0.15 0.11 0.11 0.09 0.08 0.07 0.04 0.04 0.03 0.03 0.05 0.09 0.13 0.17 0.21 0.23 0.28 0.34 0.36 0.39 0.45 0.51 0.60 0.64 0.58 0.53 0.55 0.58 0.60 0.64 0.69 0.72 0.80 0.93 1.01 0.94 0.90 0.92 0.90 0.88 0.80 0.73 0.69 0.60 0.51 0.43 0.38 0.39 0.45 0.52 0.47 0.48 0.45 0.43 0.37 0.29 0.26 0.29 0.33 0.37 0.34 0.39 0.38 0.35 0.36
0.29 0.26 0.25 0.25 0.34 0.22 0.22 0.21 0.22 0.24 0.26 0.21 0.24 0.45 0.43 0.27 0.22 0.17 0.18 0.25 0.31 0.21 0.13 0.13 0.11 0.11 0.08 0.06 0.05 0.06 0.05 0.05 0.07 0.11 0.14 0.16 0.21 0.29 0.36 0.38 0.39 0.42 0.48 0.56 0.58 0.51 0.48 0.50 0.52 0.55 0.60 0.61 0.61 0.65 0.72 0.82 0.93 0.99 0.93 0.80 0.74 0.73 0.72 0.58 0.44 0.38 0.34 0.42 0.51 0.53 0.48 0.46 0.51 0.51 0.43 0.27 0.26 0.28 0.34 0.35 0.35 0.30 0.34 0.29 0.36
0.27 0.23 0.19 0.17 0.16 0.18 0.18 0.20 0.23 0.21 0.17 0.19 0.22 0.21 0.15 0.13 0.16 0.20 0.24 0.30 0.28 0.18 0.09 0.04 0.04 0.06 0.08 0.07 0.07 0.08 0.09 0.09 0.08 0.07 0.08 0.11 0.14 0.18 0.25 0.32 0.36 0.37 0.43 0.50 0.54 0.51 0.44 0.44 0.46 0.46 0.48 0.53 0.60 0.63 0.62 0.66 0.77 0.88 0.92 0.84 0.76 0.70 0.59 0.49 0.43 0.38 0.37 0.43 0.56 0.63 0.58 0.57 0.55 0.51 0.48 0.38 0.33 0.31 0.33 0.37 0.30 0.25 0.23 0.26 0.31
0.29 0.26 0.24 0.19 0.16 0.16 0.18 0.17 0.14 0.12 0.13 0.14 0.13 0.10 0.09 0.10 0.12 0.16 0.22 0.22 0.12 0.04 0.02 0.02 0.02 0.02 0.03 0.05 0.07 0.09 0.10 0.11 0.14 0.15 0.14 0.10 0.09 0.10 0.13 0.20 0.30 0.36 0.39 0.45 0.49 0.49 0.47 0.41 0.39 0.41 0.41 0.43 0.49 0.56 0.61 0.66 0.74 0.85 0.94 0.93 0.80 0.65 0.57 0.51 0.46 0.43 0.38 0.41 0.47 0.47 0.50 0.52 0.47 0.47 0.47 0.46 0.38 0.32 0.32 0.35 0.31 0.27 0.30 0.29 0.30
0.31 0.27 0.22 0.19 0.18 0.18 0.16 0.15 0.13 0.10 0.06 0.06 0.05 0.06 0.07 0.09 0.11 0.15 0.17 0.12 0.07 0.04 0.02 0.01 0.01 0.01 0.01 0.01 0.02 0.03 0.05 0.07 0.10 0.12 0.15 0.18 0.16 0.14 0.14 0.17 0.23 0.31 0.36 0.42 0.44 0.43 0.44 0.43 0.38 0.36 0.38 0.38 0.40 0.44 0.51 0.61 0.70 0.79 0.91 0.93 0.82 0.67 0.58 0.52 0.48 0.47 0.46 0.49 0.53 0.50 0.46 0.32 0.27 0.33 0.41 0.46 0.45 0.37 0.33 0.33 0.34 0.33 0.29 0.30 0.31
0.23 0.21 0.17 0.15 0.15 0.16 0.18 0.20 0.15 0.13 0.10 0.06 0.05 0.06 0.07 0.09 0.14 0.19 0.14 0.10 0.08 0.06 0.02 0.01 0.00 0.00 0.00 0.00 0.01 0.02 0.02 0.03 0.05 0.08 0.11 0.13 0.14 0.13 0.11 0.12 0.14 0.17 0.22 0.28 0.34 0.37 0.38 0.38 0.37 0.36 0.36 0.38 0.39 0.40 0.43 0.52 0.59 0.58 0.63 0.73 0.75 0.63 0.53 0.51 0.50 0.52 0.56 0.58 0.56 0.49 0.39 0.28 0.25 0.26 0.30 0.37 0.39 0.36 0.32 0.33 0.34 0.33 0.33 0.34 0.35